Regional Weather Roundup
Issued by NWS New Orleans/Baton Rouge, LA

Home | Current Version | Previous Version | Text Only | Print | Product List | Glossary On
Versions: 1 2 3 4 5 6 7 8 9 10 11 12 13 14 15 16 17 18 19 20 21 22 23 24 25 26 27 28 29 30 31 32 33 34 35 36 37 38 39 40 41 42 43 44 45 46 47 48 49 50
993
ASUS44 KLIX 280001
RWRLIX
NEW ORLEANS REGIONAL WEATHER ROUNDUP
NATIONAL WEATHER SERVICE NEW ORLEANS LA
600 PM CST TUE JAN 27 2015

NOTE: "FAIR" INDICATES FEW OR NO CLOUDS BELOW 12,000 FEET WITH NO
      SIGNIFICANT WEATHER AND/OR OBSTRUCTIONS TO VISIBILITY.
      SKY/WX - SKY CONDITION AND SIGNIFICANT WEATHER.
      TMP - AIR TEMPERATURE.     DP    - DEWPOINT TEMPERATURE.
      RH  - RELATIVE HUMIDITY.   PRES  - PRESSURE.
      HI  - HEAT INDEX.          WCI   - WIND CHILL INDEX.

*  THESE STATIONS ARE NOT NWS OR FAA STATIONS AND ARE NOT UNDER
   NWS QUALITY CONTROL.

LAZ038-040-048-061>063-065>067-069-280100-
SOUTHEAST LOUISIANA

CITY           SKY/WX    TMP DP  RH WIND       PRES   REMARKS
N.O. AUDUBON   NOT AVBL
N.O. INTL ARPT PTCLDY    67  37  33 N3        30.10R
6HR MIN TEMP:  65; 6HR MAX TEMP:  74;

N.O. LAKEFRONT PTCLDY    61  47  59 W8        30.10R
6HR MIN TEMP:  58; 6HR MAX TEMP:  66;

N.O. DOWNTOWN*   N/A    N/A N/A N/A CALM      30.10R
SLIDELL        CLEAR     59  45  59 CALM      30.09R
6HR MIN TEMP:  59; 6HR MAX TEMP:  76;

BATON ROUGE    CLEAR     65  35  33 NW3       30.11R
6HR MIN TEMP:  65; 6HR MAX TEMP:  77;

BOOTHVILLE     CLEAR     60  53  77 SW6       30.11R
6HR MIN TEMP:  60; 6HR MAX TEMP:  68;

BELLE CHASSE   PTCLDY    63  36  36 CALM      30.09R
6HR MIN TEMP:  63; 6HR MAX TEMP:  74;

BOGALUSA*        N/A     60  38  42 CALM      30.11R
6HR MIN TEMP:  60; 6HR MAX TEMP:  75;

GALLIANO*      NOT AVBL
NEW ROADS*     NOT AVBL
GONZALES*      NOT AVBL
HAMMOND*       NOT AVBL
HOUMA*         CLEAR     66  45  45 W3        30.10R
PORT FOURCHON*   N/A     63  54  72 W5        30.15R

$$

MSZ070-080>082-280100-
SOUTHERN MISSISSIPPI

CITY           SKY/WX    TMP DP  RH WIND       PRES   REMARKS
MCCOMB         CLEAR     61  37  41 NW3       30.11R
6HR MIN TEMP:  61; 6HR MAX TEMP:  72;

GULFPORT       CLEAR     62  38  40 W5        30.08R
6HR MIN TEMP:  62; 6HR MAX TEMP:  73;

BILOXI         CLEAR     61  43  51 VRB1      30.07R
6HR MIN TEMP:  60; 6HR MAX TEMP:  71;

PASCAGOULA     CLEAR     57  44  62 SW3       30.07R
6HR MIN TEMP:  57; 6HR MAX TEMP:  72;

STENNIS ARPT*  CLEAR     55  39  54 CALM      30.09R

$$

COASTAL OBSERVATIONS
LAKE AND NEARSHORE STATIONS

STATION/POSITION TIME  TEMP    WIND        PRES    WAVE
                       AIR SEA DIR/SP/G            HT/PER
                 (UTC) (F)     (DEG/KT/KT) (MB)    (FT/S)
PASCAGOULA       2322   59     260/  8/ 11 1017.3
WAVELAND YACHT   2322   68     340/  9/ 11 1017.4
GRAND ISLE       2322   65 62  220/  5/  8 1019.7
SOUTHWEST PASS   2322   60 48  220/  7/  8 1019.5
NEW CANAL        2322   67 54  270/  3/  4 1019.1
SHELL BEACH      2322   68 56  280/  9/  9 1018.5

OFFSHORE STATIONS

STATION/POSITION TIME  TEMP    WIND        PRES    WAVE
                       AIR SEA DIR/SP/G            HT/PER
                 (UTC) (F)     (DEG/KT/KT) (MB)    (FT/S)
64 S DAUPHIN ISL 2247   63 67  320/ 12/ 14 1018.6    3/ 6

$$




USA.gov is the U.S. government's official web portal to all federal, state and local government web resources and services.